Regional Weather Roundup
Issued by NWS

Home | Current Version | Previous Version | Text Only | Print | Product List | Glossary On
Versions: 1 2 3 4 5 6 7 8 9 10 11 12 13 14 15 16 17 18 19 20 21 22 23 24 25 26
000
ASUS46 KSEW 252210
RWRWA

WASHINGTON REGIONAL WEATHER ROUNDUP
NATIONAL WEATHER SERVICE SEATTLE WA
300 PM PDT WED MAY 25 2016

NOTE:"FAIR" INDICATES FEW OR NO CLOUDS BELOW 12,000 FEET WITH NO
SIGNIFICANT WEATHER AND/OR OBSTRUCTIONS TO VISIBILITY.

WAZ505-507>509-252300-
SEATTLE, TACOMA, EVERETT, AND VICINITY

CITY           SKY/WX    TMP DP  RH WIND       PRES   REMARKS
EVERETT        PTSUNNY   62  50  64 W9        30.16S
BOEING FIELD   PTSUNNY   65  51  60 S12G17    30.16S
RENTON         CLOUDY    65  50  58 S8        30.16S
SEATAC AIRPORT PTSUNNY   63  50  62 SW10      30.18S
JBLM-MCCHORD   CLOUDY    61  51  68 SW13      30.18R
PUYALLUP       CLOUDY    61  52  72 VRB5      30.18S
BREMERTON      CLOUDY    61  52  72 S6        30.19S
JBLM-FT LEWIS  CLOUDY    61  51  69 S12       30.18R
TACOMA NARROWS CLOUDY    60  49  66 VRB5      30.18S
$$

WAZ001-503-506-510-514-515-252300-
NORTH INTERIOR

CITY           SKY/WX    TMP DP  RH WIND       PRES   REMARKS
BELLINGHAM     SUNNY     65  51  60 S12G18    30.13S
FRIDAY HARBOR  SUNNY     63  50  62 S10       30.16R
EASTSOUND      SUNNY     63  52  67 S8        30.12S
PORT ANGELES   SUNNY     60  48  64 NW13G21   30.16S
EDIZ HOOK      MOCLDY    58  49  72 NW12G18   30.16S
PORT TOWNSEND  CLOUDY    63  54  72 CALM      30.16S
NAS WHIDBEY    MOSUNNY   62  52  69 W9        30.19S
ARLINGTON      CLOUDY    63  48  59 SE6       30.17S
BURLINGTON     CLOUDY    64  52  63 S9        30.15S
$$

WAZ020-022-039-040-504-511-512-252300-
SOUTHWEST INTERIOR

CITY           SKY/WX    TMP DP  RH WIND       PRES   REMARKS
SHELTON        CLOUDY    62  48  60 SW16G22   30.16R
OLYMPIA        CLOUDY    59  48  67 SW13      30.19R
CHEHALIS       CLOUDY    63  52  67 VRB7      30.20R
KELSO          CLOUDY    64  48  55 W12       30.22S
VANCOUVER      CLOUDY    65  50  58 S7        30.17F
SCAPPOOSE, OR  CLOUDY    64  50  60 E6        30.17S
PORTLAND, OR   CLOUDY    65  49  56 NE5       30.18S
$$

WAZ021-516-517-252300-
WASHINGTON COAST

CITY           SKY/WX    TMP DP  RH WIND       PRES   REMARKS
FORKS          CLOUDY    55  49  80 W10       30.20R
HOQUIAM        CLOUDY    57  48  72 W14       30.22R HAZE
ASTORIA, OR    CLOUDY    60  48  64 NW14      30.23R
$$

WAZ019-023-024-040-518-519-252300-
CASCADE MOUNTAINS AND COLUMBIA GORGE

CITY           SKY/WX    TMP DP  RH WIND       PRES   REMARKS
STAMPEDE PASS  PTSUNNY   48  43  82 MISG      30.14S
TROUTDALE, OR  CLOUDY    65  49  56 CALM      30.18F
THE DALLES, OR SUNNY     71  45  39 NW22G36   30.06S
$$

WAZ026-027-041>044-520-521-252300-
EAST SLOPES

CITY           SKY/WX    TMP DP  RH WIND       PRES   REMARKS
OMAK           SUNNY     77  44  30 VRB6      29.93F
WENATCHEE      SUNNY     77  40  26 W7G18     29.95F
ELLENSBURG     SUNNY     70  44  39 NW28G35   30.01S
YAKIMA         MOSUNNY   79  44  28 VRB5      29.98F
$$

WAZ028-034-035-252300-
COLUMBIA BASIN

CITY           SKY/WX    TMP DP  RH WIND       PRES   REMARKS
EPHRATA        SUNNY     77  44  30 S16       29.95F
MOSES LAKE     SUNNY     78  43  28 S12       29.96F
PASCO          SUNNY     79  41  25 S10G21    29.98F
HERMISTON, OR  SUNNY     78  43  28 W10G21    29.99F
$$

WAZ036>038-252300-
NORTHEAST WASHINGTON

CITY           SKY/WX    TMP DP  RH WIND       PRES   REMARKS
SPOKANE GEIGER PTSUNNY   69  42  37 SW15      30.00S
SPOKANE FELTS  PTSUNNY   71  45  39 W12G21    29.99F
FAIRCHILD AFB  MOSUNNY   70  43  37 SW15G23   30.00F
COEURDALENE,ID MOSUNNY   70  50  49 SW16G22   29.97F
DEER PARK      PTSUNNY   72  44  36 S14G21    29.99F
$$

WAZ029>033-252300-
SOUTHEAST WASHINGTON

CITY           SKY/WX    TMP DP  RH WIND       PRES   REMARKS
PULLMAN        PTSUNNY   68  45  43 W10G16    30.05F
LEWISTON, ID   PTSUNNY   72  46  39 W5        30.00F
WALLA WALLA    MOSUNNY   72  45  37 SW8       30.01F
PENDLETON, OR  MOSUNNY   74  41  30 NW8G18    30.01F
$$




USA.gov is the U.S. government's official web portal to all federal, state and local government web resources and services.